When you browse on this site, cookies collect data to enhance your experience and personalize the content and advertising you see.
Visit our Privacy Policy to learn more. By continuing to use the site, you agree to this use of cookies and data.
  • In United Kingdom
  • List of Countries
  • For 7 days
  • Water Temperature
  • Satellite Maps
  • Weather Map
  • Weather Widgets
  • user-avatar
    Login

    Hourly Weather Plymouth

    Today, 27 June, Thursday

    Time Temperature Precipitation Wind Pressure Humidity
    00:00 +16°C° 0 mm 11 mps 767 mmHg 86%
    01:00 +16°C° 0 mm 11 mps 767 mmHg 85%
    02:00 +14°C° 0 mm 11 mps 767 mmHg 85%
    03:00 +14°C° 0 mm 11 mps 767 mmHg 84%
    04:00 +14°C° 0 mm 11 mps 766 mmHg 85%
    05:00 +14°C° 0 mm 11 mps 766 mmHg 85%
    06:00 +14°C° 0 mm 11 mps 766 mmHg 86%
    07:00 +16°C° 0 mm 11 mps 766 mmHg 84%
    08:00 +17°C° 0 mm 11 mps 767 mmHg 82%
    09:00 +18°C° 0 mm 12 mps 767 mmHg 80%
    10:00 +19°C° 0 mm 12 mps 767 mmHg 78%
    11:00 +21°C° 0 mm 12 mps 766 mmHg 75%
    12:00 +22°C° 0 mm 12 mps 766 mmHg 72%
    13:00 +23°C° 0 mm 12 mps 766 mmHg 72%
    14:00 +23°C° 0 mm 13 mps 765 mmHg 71%
    15:00 +23°C° 0 mm 13 mps 765 mmHg 71%
    16:00 +22°C° 0 mm 13 mps 765 mmHg 70%
    17:00 +20°C° 0 mm 13 mps 764 mmHg 70%
    18:00 +19°C° 0 mm 13 mps 764 mmHg 69%
    19:00 +19°C° 0 mm 13 mps 764 mmHg 67%
    20:00 +19°C° 0 mm 13 mps 764 mmHg 65%
    21:00 +18°C° 0 mm 13 mps 765 mmHg 63%
    22:00 +18°C° 0 mm 13 mps 765 mmHg 65%
    23:00 +17°C° 0 mm 13 mps 764 mmHg 67%

    Tomorrow, 28 June, Friday

    Time Temperature Precipitation Wind Pressure Humidity
    00:00 +15°C° 0 mm 13 mps 764 mmHg 69%
    01:00 +15°C° 0 mm 13 mps 764 mmHg 70%
    02:00 +15°C° 0 mm 12 mps 764 mmHg 71%
    03:00 +14°C° 0 mm 12 mps 764 mmHg 72%
    04:00 +14°C° 0 mm 12 mps 763 mmHg 76%
    05:00 +14°C° 0 mm 12 mps 763 mmHg 79%
    06:00 +14°C° 0 mm 12 mps 763 mmHg 83%
    07:00 +15°C° 0 mm 12 mps 763 mmHg 81%
    08:00 +17°C° 0 mm 12 mps 763 mmHg 80%
    09:00 +18°C° 0 mm 11 mps 763 mmHg 79%
    10:00 +19°C° 0 mm 11 mps 763 mmHg 76%
    11:00 +19°C° 0 mm 11 mps 762 mmHg 74%
    12:00 +21°C° 0 mm 11 mps 762 mmHg 72%
    13:00 +21°C° 0 mm 11 mps 762 mmHg 73%
    14:00 +21°C° 0 mm 10 mps 762 mmHg 74%
    15:00 +21°C° 0 mm 9 mps 762 mmHg 75%
    16:00 +21°C° 0 mm 9 mps 762 mmHg 77%
    17:00 +20°C° 0 mm 8 mps 761 mmHg 80%
    18:00 +20°C° 0 mm 7 mps 761 mmHg 82%
    19:00 +19°C° 0 mm 6 mps 761 mmHg 83%
    20:00 +17°C° 0 mm 6 mps 761 mmHg 84%
    21:00 +17°C° 0 mm 5 mps 761 mmHg 85%
    22:00 +18°C° 0 mm 4 mps 761 mmHg 85%
    23:00 +18°C° 0 mm 4 mps 761 mmHg 84%

    Day after tomorrow, 29 June, Saturday

    Time Temperature Precipitation Wind Pressure Humidity
    00:00 +19°C° 0 mm 4 mps 761 mmHg 84%
    01:00 +19°C° 0 mm 3 mps 761 mmHg 85%
    02:00 +19°C° 0 mm 3 mps 760 mmHg 86%
    03:00 +19°C° 0 mm 2 mps 760 mmHg 88%
    04:00 +19°C° 0 mm 2 mps 760 mmHg 89%
    05:00 +19°C° 0 mm 2 mps 760 mmHg 90%
    06:00 +19°C° 0 mm 2 mps 759 mmHg 91%
    07:00 +20°C° 0 mm 2 mps 760 mmHg 90%
    08:00 +21°C° 0 mm 2 mps 760 mmHg 89%
    09:00 +23°C° 0 mm 2 mps 760 mmHg 87%
    10:00 +23°C° 0 mm 2 mps 759 mmHg 88%
    11:00 +21°C° 0 mm 3 mps 759 mmHg 89%
    12:00 +21°C° 0 mm 4 mps 759 mmHg 90%
    13:00 +21°C° 0.1 mm 4 mps 760 mmHg 85%
    14:00 +22°C° 0.1 mm 4 mps 760 mmHg 80%
    15:00 +22°C° 0.1 mm 4 mps 760 mmHg 75%
    16:00 +21°C° 0 mm 4 mps 760 mmHg 76%
    17:00 +21°C° 0 mm 5 mps 760 mmHg 77%
    18:00 +20°C° 0 mm 5 mps 760 mmHg 78%
    19:00 +18°C° 0 mm 4 mps 760 mmHg 83%
    20:00 +15°C° 0 mm 4 mps 760 mmHg 88%
    21:00 +13°C° 0 mm 3 mps 761 mmHg 94%
    22:00 +13°C° 0 mm 3 mps 761 mmHg 95%
    23:00 +13°C° 0 mm 3 mps 761 mmHg 95%

    30 June, Sunday

    Time Temperature Precipitation Wind Pressure Humidity
    00:00 +12°C° 0 mm 3 mps 761 mmHg 96%
    01:00 +13°C° 0 mm 2 mps 761 mmHg 97%
    02:00 +13°C° 0 mm 2 mps 761 mmHg 97%
    03:00 +13°C° 0 mm 2 mps 761 mmHg 98%
    04:00 +14°C° 0 mm 2 mps 761 mmHg 97%
    05:00 +15°C° 0 mm 2 mps 761 mmHg 96%
    06:00 +15°C° 0 mm 2 mps 761 mmHg 96%
    07:00 +16°C° 0 mm 2 mps 762 mmHg 93%
    08:00 +17°C° 0 mm 2 mps 762 mmHg 90%
    09:00 +18°C° 0 mm 3 mps 762 mmHg 88%
    10:00 +18°C° 0 mm 3 mps 763 mmHg 86%
    11:00 +19°C° 0 mm 4 mps 763 mmHg 84%
    12:00 +20°C° 0 mm 5 mps 763 mmHg 83%
    13:00 +20°C° 0.1 mm 5 mps 763 mmHg 82%
    14:00 +20°C° 0.1 mm 5 mps 763 mmHg 81%
    15:00 +20°C° 0.1 mm 6 mps 763 mmHg 80%
    16:00 +20°C° 0 mm 5 mps 763 mmHg 81%
    17:00 +19°C° 0 mm 5 mps 763 mmHg 81%
    18:00 +19°C° 0 mm 5 mps 763 mmHg 81%
    19:00 +16°C° 0 mm 5 mps 763 mmHg 86%
    20:00 +14°C° 0 mm 4 mps 764 mmHg 91%
    21:00 +13°C° 0 mm 4 mps 764 mmHg 96%
    22:00 +12°C° 0 mm 4 mps 764 mmHg 96%
    23:00 +12°C° 0 mm 5 mps 764 mmHg 96%

    1 July, Monday

    Time Temperature Precipitation Wind Pressure Humidity
    00:00 +12°C° 0 mm 5 mps 764 mmHg 96%
    01:00 +10°C° 0 mm 5 mps 764 mmHg 96%
    02:00 +10°C° 0 mm 5 mps 764 mmHg 96%
    03:00 +11°C° 0 mm 4 mps 764 mmHg 95%
    04:00 +11°C° 0 mm 4 mps 764 mmHg 93%
    05:00 +12°C° 0 mm 4 mps 765 mmHg 91%
    06:00 +13°C° 0 mm 3 mps 765 mmHg 89%
    07:00 +14°C° 0 mm 4 mps 765 mmHg 84%
    08:00 +14°C° 0 mm 5 mps 765 mmHg 79%
    09:00 +15°C° 0 mm 5 mps 766 mmHg 75%
    10:00 +15°C° 0 mm 5 mps 766 mmHg 73%
    11:00 +16°C° 0 mm 5 mps 766 mmHg 72%
    12:00 +17°C° 0 mm 5 mps 766 mmHg 70%
    13:00 +17°C° 0 mm 5 mps 766 mmHg 70%
    14:00 +17°C° 0 mm 5 mps 766 mmHg 70%
    15:00 +17°C° 0 mm 5 mps 766 mmHg 70%
    16:00 +16°C° 0 mm 5 mps 766 mmHg 72%
    17:00 +16°C° 0 mm 5 mps 766 mmHg 74%
    18:00 +15°C° 0 mm 5 mps 766 mmHg 76%
    19:00 +14°C° 0 mm 4 mps 766 mmHg 81%
    20:00 +12°C° 0 mm 3 mps 766 mmHg 87%
    21:00 +11°C° 0 mm 3 mps 767 mmHg 92%
    22:00 +11°C° 0 mm 3 mps 767 mmHg 93%
    23:00 +11°C° 0 mm 3 mps 767 mmHg 94%

    2 July, Tuesday

    Time Temperature Precipitation Wind Pressure Humidity
    00:00 +12°C° 0 mm 2 mps 767 mmHg 95%
    01:00 +11°C° 0 mm 3 mps 767 mmHg 95%
    02:00 +11°C° 0 mm 3 mps 767 mmHg 95%
    03:00 +11°C° 0 mm 3 mps 767 mmHg 95%
    04:00 +11°C° 0 mm 4 mps 767 mmHg 94%
    05:00 +12°C° 0 mm 4 mps 767 mmHg 92%
    06:00 +12°C° 0 mm 4 mps 767 mmHg 91%
    07:00 +13°C° 0 mm 4 mps 767 mmHg 86%
    08:00 +14°C° 0 mm 3 mps 767 mmHg 81%
    09:00 +17°C° 0 mm 3 mps 767 mmHg 76%
    10:00 +18°C° 0 mm 3 mps 768 mmHg 72%
    11:00 +19°C° 0 mm 2 mps 768 mmHg 68%
    12:00 +20°C° 0 mm 2 mps 768 mmHg 65%
    13:00 +20°C° 0 mm 2 mps 768 mmHg 66%
    14:00 +20°C° 0 mm 2 mps 768 mmHg 68%
    15:00 +20°C° 0 mm 2 mps 768 mmHg 69%
    16:00 +19°C° 0 mm 2 mps 767 mmHg 72%
    17:00 +19°C° 0 mm 2 mps 767 mmHg 75%
    18:00 +19°C° 0 mm 2 mps 767 mmHg 78%
    19:00 +17°C° 0 mm 3 mps 767 mmHg 83%
    20:00 +14°C° 0 mm 3 mps 767 mmHg 88%
    21:00 +13°C° 0 mm 3 mps 767 mmHg 93%
    22:00 +12°C° 0 mm 3 mps 767 mmHg 92%
    23:00 +12°C° 0 mm 4 mps 767 mmHg 92%
    Show more